Location: Simi Valley
(34.2690°N, 118.7810°W)
Time: 06:39:09
(UTC-07:00)

SAR-Lupe-1 - Visible Passes

Search period start: 25 March 2017 00:00
Search period end: 04 April 2017 00:00
Orbit: 483 x 485 km, 98.2° (Epoch: 21 March)

Date Brightness Start Highest point End Pass type
(mag) Time Alt. Az. Time Alt. Az. Time Alt. Az.
25 Mar 6.0 19:50:25 11° E 19:51:24 12° ENE 19:52:58 10° NE visible
25 Mar 5.9 21:24:45 30° W 21:24:45 30° W 21:27:38 10° NW visible
26 Mar 4.1 20:59:59 73° W 20:59:59 73° W 21:03:32 10° NNW visible
27 Mar 4.3 20:35:12 44° E 20:35:33 46° ENE 20:38:59 10° N visible
28 Mar 5.4 20:10:26 20° E 20:11:14 21° ENE 20:14:00 10° NNE visible
28 Mar 6.8 21:44:47 17° W 21:44:47 17° W 21:46:56 10° NW visible
29 Mar 6.2 19:46:25 10° ENE 19:47:00 10° ENE 19:47:35 10° ENE visible
29 Mar 5.4 21:20:01 37° W 21:20:01 37° W 21:23:18 10° NNW visible
30 Mar 3.9 20:55:14 77° SSE 20:55:29 89° E 20:59:04 10° NNW visible
31 Mar 4.6 20:30:27 34° E 20:31:06 37° ENE 20:34:26 10° N visible
01 Apr 5.7 20:05:41 16° E 20:06:48 18° ENE 20:09:16 10° NNE visible
01 Apr 6.4 21:40:02 21° W 21:40:02 21° W 21:42:45 10° NW visible
02 Apr 4.9 21:15:16 46° WSW 21:15:27 46° W 21:18:55 10° NNW visible
03 Apr 3.9 20:50:29 59° SE 20:51:00 72° ENE 20:54:34 10° N visible
